www.pogodaiklimat.ru

Погода и климат >> Архив погоды >> Россия >> Якутия >> Джарджан


АРХИВ ПОГОДЫ в Джарджане

Время (UTC), дата Ветер
(напр.,м/с)
 
Видим.   Явления Облачность Т
(С)
Тd
(С)
f
(%)
Тe
(С)
Тes
(С)
Комфортность P
(гПа)
Po
(гПа)
Тmin
(С)
Tmax
(С)
R
(мм)
R24
(мм)
S
(см)
06 13.02 Ю 3 50 км 3/3 1000 м
[Sc]
-30.6 -34.3 70 -40 -40 опасность
обморожения
1014.6 1009.1
09 13.02 Ю 4 50 км 4/4 1000 м
[Sc]
-32.3 -35.9 70 -44 -44 опасность
обморожения
1014.8 1009.3
12 13.02 ЮВ 1 50 км слаб. снег 10/0
[Ac As]
-33.3 -36.9 70 -38 -38 опасность
обморожения
1015.4 1009.8 -30.6 0.0
15 13.02 Ю 2 20 км слаб. снег 10/0
[Ac As]
-33.0 -36.7 69 -41 -41 опасность
обморожения
1015.2 1009.6
18 13.02 Ю 4 20 км слаб. снег 10/0
[Ac As]
-31.1 -34.7 70 -43 -43 опасность
обморожения
1014.6 1009.1
21 13.02 ЮВ 5 20 км слаб. снег 10/0
[Ac As]
-30.6 -34.3 70 -43 -43 опасность
обморожения
1014.2 1008.7
00 14.02 Ю 5 20 км слаб. снег 10/0
[Ac As]
-30.2 -33.9 70 -43 -43 опасность
обморожения
1014.1 1008.6 -33.3 2 30
03 14.02 Ю 4 50 км {ливн. осадки} 10/0
[Ac As]
-30.8 -34.9 67 -42 -42 опасность
обморожения
1013.5 1008.0
06 14.02 Ю 4 50 км 10/0
[Ac As]
-29.6 -34.0 65 -41 -41 опасность
обморожения
1012.3 1006.8
09 14.02 Ю 6
{12}
50 км 10/0
[Ac As]
-29.0 -32.7 70 -42 -42 опасность
обморожения
1011.3 1005.8
12 14.02 Ю 6
{13}
50 км 3/0
[Ac As]
-28.7 -32.5 70 -42 -42 опасность
обморожения
1009.7 1004.3 -28.7 0.3
15 14.02 Ю 7
{14}
50 км 4/0
[Ac As]
-28.0 -31.8 70 -42 -42 опасность
обморожения
1007.2 1001.8
18 14.02 Ю 7
{14}
50 км 4/0
[Ac As]
-27.1 -30.9 70 -41 -41 опасность
обморожения
1005.2 999.9
21 14.02 Ю 5
{12}
50 км 8/0
[Ac As]
-26.0 -29.8 70 -38 -38 опасность
обморожения
1003.1 997.8
00 15.02 Ю 6
{13}
50 км 10/0
[Ac As]
-25.5 -29.4 70 -38 -38 опасность
обморожения
1002.1 996.8 -29.0 30
03 15.02 ЮЗ 5
{11}
50 км 10/0
[Ac As]
-25.3 -29.1 70 -37 -37 опасность
обморожения
1001.7 996.4
06 15.02 ЮЗ 5
{10}
50 км 8/0
[Ac As]
-25.1 -28.2 75 -36 -36 опасность
обморожения
1000.9 995.6
09 15.02 Ю 5
{10}
50 км 10/0
[Ac As]
-23.2 -26.4 75 -34 -34 опасность
обморожения
1000.2 994.9
12 15.02 Ю 5
{12}
50 км 10/0
[Ac As]
-22.3 -25.4 76 -33 -33 опасность
обморожения
998.5 993.3 -22.3
15 15.02 Ю 5
{12}
50 км 10/0
[Ac As]
-22.3 -25.5 75 -33 -33 опасность
обморожения
991.3 991.3
18 15.02 Ю 4
{10}
50 км 9/0
[Ac As]
-21.4 -24.7 75 -31 -31 опасность
обморожения
994.6 989.4
21 15.02 Ю 4 50 км 9/0
[Ac As]
-20.6 -23.9 75 -30 -30 994.5 989.3
00 16.02 ЮЗ 2 50 км 10/0
[Ac As]
-21.8 -24.3 80 -28 -28 995.5 990.3 -23.2 30
03 16.02 ЮЗ 2 50 км 10/0
[Ac As]
-23.4 -25.9 80 -30 -30 997.5 992.2
06 16.02 Ю 2 50 км слаб. снег 10/0
[Ac As]
-22.9 -25.4 80 -29 -29 998.7 993.4
09 16.02 ЮЗ 2 20 км слаб. снег 10/0
[Ac As]
-23.5 -26.0 80 -30 -30 1001.8 996.5
12 16.02 С 2 20 км слаб. снег 10/0
[Ac As]
-24.0 -26.5 80 -30 -30 1004.3 999.0 -21.8 0.8
15 16.02 С 1 20 км слаб. снег 10/0
[Ac As]
-28.0 -31.1 75 -32 -32 опасность
обморожения
1006.4 1001.0
18 16.02 З 1 20 км слаб. снег 10/0
[Ac As]
-29.9 -33.0 74 -34 -34 опасность
обморожения
1008.2 1002.8
21 16.02 СВ 1 50 км {снег} 10/0
[Ac As]
-32.6 -35.5 75 -37 -37 опасность
обморожения
1008.7 1003.2
00 17.02 В 2 50 км 10/0
[Ac trans]
-33.0 -36.0 74 -41 -41 опасность
обморожения
1009.0 1003.5 -33.4 1 30
03 17.02 Ю 2 50 км 10/0
[Ac trans]
-29.5 -32.6 74 -37 -37 опасность
обморожения
1008.2 1002.8
06 17.02 Ю 3 50 км 10/0
[Ac trans]
-26.3 -29.4 75 -35 -35 опасность
обморожения
1007.7 1002.4
09 17.02 Ю 4 50 км 10/0
[Ac trans]
-26.1 -29.2 75 -36 -36 опасность
обморожения
1007.6 1002.3
12 17.02 Ю 3 50 км 10/0
[Ac As]
-24.1 -27.3 75 -33 -33 опасность
обморожения
1007.9 1002.6 -24.1
15 17.02 Ю 3 20 км слаб. снег 10/0
[Ac As]
-23.8 -27.0 75 -32 -32 опасность
обморожения
1007.9 1002.6
18 17.02 Ю 2 50 км {снег} 6/0
[Ac trans]
-26.1 -29.2 75 -33 -33 опасность
обморожения
1008.7 1003.4
21 17.02 штиль 0 50 км 8/0
[Ac trans Ci fib]
-29.2 -33.2 68 -29 -29 1009.5 1004.1
00 18.02 штиль 0 50 км 10/0
[Ac trans Ci fib]
-30.0 -33.0 75 -30 -30 1010.2 1004.8 -30.0 0.5 35
03 18.02 ЮЗ 1 50 км 3/0
[Ci fib]
-29.9 -33.7 69 -34 -33 опасность
обморожения
1010.4 1005.0
06 18.02 З 1 50 км 4/0
[Ci fib]
-27.5 -31.3 70 -31 -31 опасность
обморожения
1010.7 1005.2
09 18.02 штиль 0 50 км 4/0
[Ci fib]
-20.5 -31.9 35 -21 -21 1011.2 1005.7
12 18.02 ЮВ 1 50 км 8/0
[Ac trans Ci fib]
-30.6 -33.6 75 -35 -35 опасность
обморожения
1011.7 1006.2 -27.5
15 18.02 Ю 3 50 км 10/0
[Ac trans Ci fib]
-28.5 -31.5 75 -38 -38 опасность
обморожения
1012.2 1006.7
18 18.02 Ю 3 50 км 6/0
[Ac trans]
-29.9 -33.0 74 -39 -39 опасность
обморожения
1012.2 1006.7
21 18.02 Ю 2 50 км 10/0
[Ac trans]
-28.4 -31.5 75 -36 -36 опасность
обморожения
1012.1 1006.6
00 19.02 В 2 50 км 4/0
[Ac trans]
-29.3 -32.4 74 -37 -37 опасность
обморожения
1012.3 1006.8 -30.6 31
03 19.02 штиль 0 50 км 3/0
[Ci fib]
-25.2 -28.4 75 -25 -24 1012.3 1006.9
06 19.02 ЮЗ 2 50 км 1/0
[Ci fib]
-25.5 -28.6 75 -32 -32 опасность
обморожения
1012.5 1007.1
09 19.02 штиль 0 50 км 4/0
[Ac trans Ci fib]
-27.1 -30.1 76 -27 -27 1013.2 1007.8
12 19.02 штиль 0 50 км 4/0
[Ci fib]
-28.4 -30.8 80 -28 -28 1014.4 1008.9 -25.2
15 19.02 штиль 0 50 км 6/0
[Cs]
-31.3 -34.2 75 -31 -31 опасность
обморожения
1015.4 1009.9
18 19.02 штиль 0 50 км 6/0
[Cs]
-30.5 -33.4 76 -31 -31 опасность
обморожения
1016.0 1010.5
21 19.02 штиль 0 50 км 6/0
[Cs]
-31.1 -34.0 75 -31 -31 опасность
обморожения
1017.1 1011.6
00 20.02 штиль 0 50 км 6/0
[Ac trans Cs]
-32.5 -35.5 74 -33 -33 опасность
обморожения
1018.0 1012.4 -32.5 31
03 20.02 ЮВ 1 50 км ясно -27.5 -30.6 75 -31 -30 опасность
обморожения
1018.5 1013.1

 

Местоположение метеостанции Джарджан (Якутия, Россия): широта 68.73 долгота 124.00 высота над уровнем моря 39 м.

В архиве по умолчанию представлена погода в Джарджане за последнюю неделю. Архивные данные за месяц целиком и за предыдущие месяцы, начиная с января 2011 года, Вы можете получить, выбрав интересующий диапазон дат из раскрывающегося списка и нажав кнопку "Ввод!".


*Определитесь, кто Вы:
робот инопланетянин человек

Внимание! Время в таблицах - всемирное. Для получения местного времени необходимо прибавить поправку, которая равна 9 ч.

Смотрите также архив погоды в соседних городах и на ближайших метеорологических станциях:

Погода в Жиганске (Якутия, Россия) (219 км)
Погода в Сухане (Якутия, Россия) (231 км)
Погода в Кюсюре (Якутия, Россия) (253 км)
Погода в Батагай-Алыте (Якутия, Россия) (284 км)
Погода в Тюмяти (Якутия, Россия) (355 км)
Погода в Тикси (Якутия, Россия) (367 км)
Погода в Бестяхской Звероферме (Якутия, Россия) (382 км)
Погода в Екюччю (Якутия, Россия) (387 км)
Погода в Верхоянске (Якутия, Россия) (409 км)
Погода на Мысе Быков (Якутия, Россия) (410 км)

Пояснения к столбцам:

Ветер - указаны скорость ветра в м/с - средняя за 10 мин, порывы в срок и между сроками (в фигурных скобках) и направление, откуда дует ветер: С - северный, СВ - северо-восточный, В - восточный, ЮВ - юго-восточный, Ю - южный, ЮЗ - юго-западный, З - западный, СЗ - северо-западный.
Видимость - горизонтальная дальность видимости в метрах или километрах. При видимости от 1 до 10 км при отсутствии осадков обычно наблюдается дымка, при ухудшении видимости до 1 км и менее - туман. В сухую погоду видимость может ухудшаться дымом, пылью или мглою.
Явления - указаны атмосферные явления, наблюдавшиеся в срок или в последний час перед сроком; фигурными скобками обозначены явления, наблюдавшиеся между сроками (за 1-3 часа до срока); квадратными скобками обозначены град или гололедные отложения с указанием их диаметра в мм.
Облачность - указаны через наклонную черту общая и нижняя облачность в баллах и высота нижней границы облаков в метрах; квадратными скобками обозначены формы облаков: Ci - перистые, Cs - перисто-слоистые, Cc - перисто-кучевые, Ac - высококучевые, As - высокослоистые, Sc - слоисто-кучевые, Ns - слоисто-дождевые, Cu - кучевые, Cb - кучево-дождевые. Подробнее классификацию облаков см. в Атласе облаков (PDF).
T - Температура воздуха - температура, измеренная на высоте 2 м над землей.
Td - Температура точки росы - температура, при понижении до которой содержащийся в воздухе водяной пар достигнет насыщения.
f - Относительная влажность воздуха - влажноcть воздуха, измеренная на высоте 2 м над землей.
Te - Эффективная температура - температура, которую ощущает одетый по сезону человек в тени. Характеристика душности погоды. При расчете учитывается влияние влажности воздуха и скорости ветра на теплоощущения человека.
Tes - Эффективная температура на солнце - температура, которую ощущает человек, с поправкой на солнечный нагрев. Характеристика знойности погоды. Зависит от высоты солнца над горизонтом, облачности и скорости ветра. Ночью, в пасмурную погоду, а также при ветре 12 м/с и более поправка равна нулю.
P - Атмосферное давление - приведенное к уровню моря атмосферное давление.
Po - Атмосферное давление - измеренное на уровне метеостанции атмосферное давление.
Tmin - Минимальная температура - минимум температуры воздуха на высоте 2 м над землей.
Tmax - Максимальная температура - максимум температуры воздуха на высоте 2 м над землей.
R - Количество осадков - Количество выпавших осадков за период времени, мм. При наведении курсора мыши на число - период времени, за который выпало указанное количество осадков.
R24 - Количество осадков - Количество выпавших осадков за 24 часа, мм.
S - Снежный покров - Высота снежного покрова, см. При наведении курсора мыши на число - состояние снежного покрова и степень покрытия местности в баллах.